Weather History for CWVN - May, 2013

Change the Weather History Date:

Tuesday, May 28, 2013

  Actual Average Record
Temperature  
Mean Temperature 58 °F -  
Max Temperature 67 °F - - ()
Min Temperature 48 °F - - ()
Degree Days  
Heating Degree Days 8    
Growing Degree Days 8 (Base 50)    
Moisture  
Dew Point 50 °F    
Average Humidity 77    
Maximum Humidity 97    
Minimum Humidity 46    
Precipitation  
Precipitation 0.00 in - - ()
Sea Level Pressure  
Sea Level Pressure 29.70 in    
Wind  
Wind Speed 5 mph ()    
Max Wind Speed 12 mph    
Max Gust Speed -    
T = Trace of Precipitation, MM = Missing Value Source: Averaged Metar Reports

Daily Weather History Graph

Daily Weather History Graph

Search for Another Location

Airport or City:

Trip Planner

Search our weather history database for the weather conditions in past years. The results will help you decide how hot, cold, wet, or windy it might be!

Date:

Astronomy

May. 28, 2013 Rise Set
Actual Time 5:13 AM CST 9:02 PM CST
Civil Twilight 4:32 AM CST 9:43 PM CST
Nautical Twilight 3:36 AM CST 10:39 PM CST
Astronomical Twilight 2:11 AM CST 12:06 AM CST
Moon No Moon Rise 9:14 AM CST (5/28)
Length of Visible Light 17h 10m
Length of Day
15h 49m
Waning Gibbous, 82% of the Moon is Illuminated
May 28
Waning Gibbous
May 31
Last Quarter
Jun 8
New
Jun 16
First Quarter
Jun 23
Full

Hourly Weather History & Observations

Time (CST) Temp. Dew Point Humidity Pressure Visibility Wind Dir Wind Speed Gust Speed Precip Events Conditions
12:00 AM 50 °F 49 °F 93% 29.72 in - ENE 2.3 mph - -  
12:00 AM 49.6 °F 48.6 °F 96% 29.72 in - ENE 2.3 mph - N/A   Unknown
1:00 AM 49.6 °F 48.7 °F 97% 29.70 in - NE 3.5 mph - N/A   Unknown
2:00 AM 49.5 °F 48.4 °F 96% 29.69 in - Calm Calm - N/A   Unknown
3:00 AM 51 °F 50 °F 95% 29.69 in - North 3.5 mph - -  
3:00 AM 50.9 °F 50.0 °F 97% 29.69 in - North 3.5 mph - N/A   Unknown
4:00 AM 52.5 °F 51.4 °F 96% 29.70 in - North 3.5 mph - N/A   Unknown
5:00 AM 53.1 °F 51.6 °F 95% 29.70 in - NNE 6.9 mph - N/A   Unknown
6:00 AM 53 °F 52 °F 93% 29.70 in - North 5.8 mph - -  
6:00 AM 52.7 °F 51.6 °F 96% 29.70 in - North 5.8 mph - N/A   Unknown
7:00 AM 55.0 °F 52.7 °F 92% 29.70 in - NNE 8.1 mph - N/A   Unknown
8:00 AM 55.8 °F 51.6 °F 86% 29.71 in - NE 6.9 mph - N/A   Unknown
9:00 AM 57 °F 52 °F 79% 29.72 in - NNE 4.6 mph - -  
9:00 AM 56.7 °F 52.2 °F 85% 29.72 in - NNE 4.6 mph - N/A   Unknown
10:00 AM 59.7 °F 51.1 °F 73% 29.71 in - NNE 11.5 mph - N/A   Unknown
11:00 AM 60.4 °F 50.7 °F 70% 29.72 in - NE 10.4 mph - N/A   Unknown
12:00 PM 63 °F 50 °F 52% 29.70 in - NE 8.1 mph - -  
12:00 PM 62.8 °F 49.6 °F 62% 29.70 in - NE 8.1 mph - N/A   Unknown
1:00 PM 63.0 °F 50.5 °F 64% 29.70 in - NE 9.2 mph - N/A   Unknown
2:00 PM 64.9 °F 49.3 °F 57% 29.69 in - NNE 8.1 mph - N/A   Unknown
3:00 PM 63 °F 49 °F 50% 29.70 in - NE 10.4 mph - -  
3:00 PM 62.8 °F 49.1 °F 61% 29.70 in - NE 10.4 mph - N/A   Unknown
4:00 PM 64.2 °F 49.1 °F 58% 29.69 in - East 9.2 mph - N/A   Unknown
5:00 PM 64.6 °F 49.6 °F 58% 29.68 in - ESE 4.6 mph - N/A   Unknown
6:00 PM 64 °F 48 °F 46% 29.69 in - SE 5.8 mph - -  
6:00 PM 64.4 °F 48.2 °F 56% 29.69 in - SE 5.8 mph - N/A   Unknown
7:00 PM 64.0 °F 47.1 °F 54% 29.69 in - ESE 2.3 mph - N/A   Unknown
8:00 PM 59.5 °F 49.8 °F 70% 29.70 in - West 11.5 mph - N/A   Unknown
9:00 PM 57 °F 50 °F 72% 29.71 in - WNW 6.9 mph - -  
9:00 PM 57.0 °F 50.4 °F 78% 29.71 in - WNW 6.9 mph - N/A   Unknown
10:00 PM 52.9 °F 48.6 °F 85% 29.72 in - NNW 8.1 mph - N/A   Unknown
11:00 PM 52.2 °F 48.7 °F 88% 29.73 in - East 2.3 mph - N/A   Unknown